Voltar ao catálogo

KUIPER-00616

AtivoComunicaçõesVLEO
NORAD 69775·PAYLOAD·🇺🇸 United States

Lançado Jul 2, 2026 de Cape Canaveral Space Force Station

Loading…

Próximas Passagens (próximas 24 horas)

TLE

AtualizadoSource: CelesTrak SupGP

Época: Sep 14, 2026, 17:01 UTC

1 69775C 26151N   26257.70945602 -.00961590  00000+0 -82193-1 0  2576
2 69775  51.8958 245.5069 0003271 116.0835 167.6808 14.98101618    16

Acompanhe KUIPER-00616 em tempo real com AllMySat

Download on the App Store